Epoch 2007 Aug. 8.0 TT = JDT 2454320.5
T 2007 Aug. 19.67080 TT MPCW
q 2.2322732 (2000.0) P Q
n 0.10359369 Peri. 335.87169 +0.16983655 -0.91421516
a 4.4900086 Node 102.63362 +0.95433580 +0.05947148
e 0.5028354 Incl. 22.15109 +0.24576154 +0.40084133
P 9.51
From 291 observations 1998 Jan. 29-2016 Oct. 7, mean residual 0".6.